User: anonymous   Login
Location: Bothwell
(42.3833°S, 147.0000°E)
Time: 22:49:18
(UTC+10:00)
Language:

M-CUBED/EXP-1 PRIME - Orbit

View from above orbital plane
View from above orbital plane
View from above satellite
View from above satellite

Ground track
Ground track

The orbit data is extracted from the following two-line orbital elements,

1 37855U 11061F   23272.02125895  .00037467  00000-0  99332-3 0  9991
2 37855 101.7087 292.8394 0106116  80.8776 280.4439 15.32638939652903
Epoch (UTC): 29 September 2023 00:30:36
Eccentricity: 0.0106116
inclination: 101.7087°
perigee height: 395 km
apogee height: 540 km
right ascension of ascending node: 292.8394°
argument of perigee: 80.8776°
revolutions per day: 15.32638939
mean anomaly at epoch: 280.4439°
orbit number at epoch: 65290

The dashed part of the orbit path shows where the satellite is in the earth's shadow,  

DLR